date,time,water_lv
2023-10-01,00:00:00,1.734
2023-10-01,00:10:00,1.936
2023-10-01,00:20:00,1.736
2023-10-01,00:30:00,1.738
2023-10-01,00:40:00,1.952
2023-10-01,00:50:00,1.947
2023-10-01,01:00:00,1.92
2023-10-01,01:10:00,1.953
2023-10-01,01:20:00,1.978
2023-10-01,01:30:00,1.735
2023-10-01,01:40:00,1.997
2023-10-01,01:50:00,1.719
2023-10-01,02:00:00,1.73
2023-10-01,02:10:00,1.731
2023-10-01,02:20:00,1.721
2023-10-01,02:30:00,1.979
2023-10-01,02:40:00,1.858
2023-10-01,02:50:00,1.72
2023-10-01,03:00:00,1.731
2023-10-01,03:10:00,1.727
2023-10-01,03:20:00,-
2023-10-01,03:30:00,1.938
2023-10-01,03:40:00,1.704
2023-10-01,03:50:00,1.723
2023-10-01,04:00:00,1.73
2023-10-01,04:10:00,1.728
2023-10-01,04:20:00,1.726
2023-10-01,04:30:00,1.726
2023-10-01,04:40:00,1.711
2023-10-01,04:50:00,1.723
2023-10-01,05:00:00,1.722
2023-10-01,05:10:00,1.719
2023-10-01,05:20:00,1.72
2023-10-01,05:30:00,1.72
2023-10-01,05:40:00,1.717
2023-10-01,05:50:00,1.717
2023-10-01,06:00:00,1.716
2023-10-01,06:10:00,1.715
2023-10-01,06:20:00,1.714
2023-10-01,06:30:00,1.713
2023-10-01,06:40:00,1.711
2023-10-01,06:50:00,1.711
2023-10-01,07:00:00,1.695
2023-10-01,07:10:00,1.695
2023-10-01,07:20:00,1.696
2023-10-01,07:30:00,1.693
2023-10-01,07:40:00,1.688
2023-10-01,07:50:00,1.685
2023-10-01,08:00:00,1.689
2023-10-01,08:10:00,1.687
2023-10-01,08:20:00,1.688
2023-10-01,08:30:00,1.687
2023-10-01,08:40:00,1.685
2023-10-01,08:50:00,1.687
2023-10-01,09:00:00,1.686
2023-10-01,09:10:00,1.686
2023-10-01,09:20:00,1.686
2023-10-01,09:30:00,1.685
2023-10-01,09:40:00,1.677
2023-10-01,09:50:00,1.683
2023-10-01,10:00:00,1.689
2023-10-01,10:10:00,1.688
2023-10-01,10:20:00,1.687
2023-10-01,10:30:00,1.682
2023-10-01,10:40:00,1.679
2023-10-01,10:50:00,1.69
2023-10-01,11:00:00,1.673
2023-10-01,11:10:00,1.69
2023-10-01,11:20:00,1.69
2023-10-01,11:30:00,1.692
2023-10-01,11:40:00,1.688
2023-10-01,11:50:00,1.69
2023-10-01,12:00:00,1.816
2023-10-01,12:10:00,1.692
2023-10-01,12:20:00,1.686
2023-10-01,12:30:00,1.845
2023-10-01,12:40:00,1.68
2023-10-01,12:50:00,1.688
2023-10-01,13:00:00,1.687
2023-10-01,13:10:00,1.686
2023-10-01,13:20:00,1.687
2023-10-01,13:30:00,1.901
2023-10-01,13:40:00,2.56
2023-10-01,13:50:00,1.676
2023-10-01,14:00:00,1.679
2023-10-01,14:10:00,1.672
2023-10-01,14:20:00,1.673
2023-10-01,14:30:00,1.686
2023-10-01,14:40:00,1.682
2023-10-01,14:50:00,1.683
2023-10-01,15:00:00,1.681
2023-10-01,15:10:00,1.681
2023-10-01,15:20:00,1.679
2023-10-01,15:30:00,1.677
2023-10-01,15:40:00,1.676
2023-10-01,15:50:00,1.673
2023-10-01,16:00:00,1.675
2023-10-01,16:10:00,1.675
2023-10-01,16:20:00,1.67
2023-10-01,16:30:00,1.672
2023-10-01,16:40:00,1.67
2023-10-01,16:50:00,1.67
2023-10-01,17:00:00,1.67
2023-10-01,17:10:00,1.667
2023-10-01,17:20:00,1.667
2023-10-01,17:30:00,1.665
2023-10-01,17:40:00,1.663
2023-10-01,17:50:00,1.663
2023-10-01,18:00:00,1.662
2023-10-01,18:10:00,1.661
2023-10-01,18:20:00,-
2023-10-01,18:30:00,1.66
2023-10-01,18:40:00,1.66
2023-10-01,18:50:00,1.66
2023-10-01,19:00:00,1.659
2023-10-01,19:10:00,1.659
2023-10-01,19:20:00,1.658
2023-10-01,19:30:00,1.658
2023-10-01,19:40:00,1.656
2023-10-01,19:50:00,1.655
2023-10-01,20:00:00,1.655
2023-10-01,20:10:00,1.655
2023-10-01,20:20:00,1.654
2023-10-01,20:30:00,1.654
2023-10-01,20:40:00,1.654
2023-10-01,20:50:00,1.654
2023-10-01,21:00:00,1.656
2023-10-01,21:10:00,1.656
2023-10-01,21:20:00,1.656
2023-10-01,21:30:00,1.655
2023-10-01,21:40:00,1.656
2023-10-01,21:50:00,1.655
2023-10-01,22:00:00,1.654
2023-10-01,22:10:00,1.656
2023-10-01,22:20:00,1.655
2023-10-01,22:30:00,1.654
2023-10-01,22:40:00,1.652
2023-10-01,22:50:00,1.653
2023-10-01,23:00:00,1.652
2023-10-01,23:10:00,1.652
2023-10-01,23:20:00,1.652
2023-10-01,23:30:00,1.652
2023-10-01,23:40:00,1.652
2023-10-01,23:50:00,1.653
2023-10-02,00:00:00,1.651
2023-10-02,00:10:00,1.653
2023-10-02,00:20:00,1.649
2023-10-02,00:30:00,1.652
2023-10-02,00:40:00,1.653
2023-10-02,00:50:00,1.651
2023-10-02,01:00:00,1.652
2023-10-02,01:10:00,1.651
2023-10-02,01:20:00,1.651
2023-10-02,01:30:00,1.648
2023-10-02,01:40:00,1.651
2023-10-02,01:50:00,1.644
2023-10-02,02:00:00,1.646
2023-10-02,02:10:00,1.646
2023-10-02,02:20:00,1.641
2023-10-02,02:30:00,1.641
2023-10-02,02:40:00,1.639
2023-10-02,02:50:00,-
2023-10-02,03:00:00,1.638
2023-10-02,03:10:00,1.636
2023-10-02,03:20:00,1.629
2023-10-02,03:30:00,1.635
2023-10-02,03:40:00,1.633
2023-10-02,03:50:00,1.629
2023-10-02,04:00:00,1.632
2023-10-02,04:10:00,1.629
2023-10-02,04:20:00,1.628
2023-10-02,04:30:00,1.626
2023-10-02,04:40:00,1.625
2023-10-02,04:50:00,1.624
2023-10-02,05:00:00,1.622
2023-10-02,05:10:00,1.622
2023-10-02,05:20:00,1.62
2023-10-02,05:30:00,1.618
2023-10-02,05:40:00,1.618
2023-10-02,05:50:00,1.615
2023-10-02,06:00:00,1.614
2023-10-02,06:10:00,1.613
2023-10-02,06:20:00,1.611
2023-10-02,06:30:00,1.611
2023-10-02,06:40:00,1.611
2023-10-02,06:50:00,1.61
2023-10-02,07:00:00,1.607
2023-10-02,07:10:00,1.606
2023-10-02,07:20:00,1.605
2023-10-02,07:30:00,1.604
2023-10-02,07:40:00,1.604
2023-10-02,07:50:00,1.604
2023-10-02,08:00:00,1.602
2023-10-02,08:10:00,1.602
2023-10-02,08:20:00,1.601
2023-10-02,08:30:00,1.601
2023-10-02,08:40:00,1.601
2023-10-02,08:50:00,1.599
2023-10-02,09:00:00,1.6
2023-10-02,09:10:00,1.601
2023-10-02,09:20:00,1.59
2023-10-02,09:30:00,1.591
2023-10-02,09:40:00,1.599
2023-10-02,09:50:00,1.585
2023-10-02,10:00:00,1.585
2023-10-02,10:10:00,1.585
2023-10-02,10:20:00,1.593
2023-10-02,10:30:00,1.58
2023-10-02,10:40:00,1.583
2023-10-02,10:50:00,1.585
2023-10-02,11:00:00,1.583
2023-10-02,11:10:00,1.591
2023-10-02,11:20:00,1.585
2023-10-02,11:30:00,1.583
2023-10-02,11:40:00,1.58
2023-10-02,11:50:00,1.597
2023-10-02,12:00:00,1.597
2023-10-02,12:10:00,1.598
2023-10-02,12:20:00,1.598
2023-10-02,12:30:00,1.595
2023-10-02,12:40:00,1.593
2023-10-02,12:50:00,1.592
2023-10-02,13:00:00,1.597
2023-10-02,13:10:00,1.588
2023-10-02,13:20:00,1.599
2023-10-02,13:30:00,1.581
2023-10-02,13:40:00,1.587
2023-10-02,13:50:00,1.587
2023-10-02,14:00:00,1.599
2023-10-02,14:10:00,1.59
2023-10-02,14:20:00,1.585
2023-10-02,14:30:00,1.588
2023-10-02,14:40:00,1.585
2023-10-02,14:50:00,1.597
2023-10-02,15:00:00,1.59
2023-10-02,15:10:00,1.586
2023-10-02,15:20:00,1.585
2023-10-02,15:30:00,1.597
2023-10-02,15:40:00,1.597
2023-10-02,15:50:00,1.594
2023-10-02,16:00:00,1.594
2023-10-02,16:10:00,1.594
2023-10-02,16:20:00,1.593
2023-10-02,16:30:00,1.593
2023-10-02,16:40:00,1.592
2023-10-02,16:50:00,1.591
2023-10-02,17:00:00,1.59
2023-10-02,17:10:00,1.59
2023-10-02,17:20:00,1.588
2023-10-02,17:30:00,1.588
2023-10-02,17:40:00,1.588
2023-10-02,17:50:00,1.587
2023-10-02,18:00:00,1.587
2023-10-02,18:10:00,1.588
2023-10-02,18:20:00,1.587
2023-10-02,18:30:00,1.587
2023-10-02,18:40:00,1.586
2023-10-02,18:50:00,1.586
2023-10-02,19:00:00,1.586
2023-10-02,19:10:00,1.587
2023-10-02,19:20:00,1.587
2023-10-02,19:30:00,1.587
2023-10-02,19:40:00,1.587
2023-10-02,19:50:00,1.587
2023-10-02,20:00:00,1.587
2023-10-02,20:10:00,1.587
2023-10-02,20:20:00,1.587
2023-10-02,20:30:00,1.59
2023-10-02,20:40:00,1.59
2023-10-02,20:50:00,1.59
2023-10-02,21:00:00,1.588
2023-10-02,21:10:00,1.59
2023-10-02,21:20:00,1.59
2023-10-02,21:30:00,1.588
2023-10-02,21:40:00,1.59
2023-10-02,21:50:00,1.59
2023-10-02,22:00:00,1.591
2023-10-02,22:10:00,1.591
2023-10-02,22:20:00,1.591
2023-10-02,22:30:00,1.591
2023-10-02,22:40:00,1.591
2023-10-02,22:50:00,1.592
2023-10-02,23:00:00,1.591
2023-10-02,23:10:00,1.592
2023-10-02,23:20:00,1.592
2023-10-02,23:30:00,1.592
2023-10-02,23:40:00,1.595
2023-10-02,23:50:00,1.598
2023-10-03,00:00:00,1.594
2023-10-03,00:10:00,1.594
2023-10-03,00:20:00,1.594
2023-10-03,00:30:00,1.597
2023-10-03,00:40:00,1.599
2023-10-03,00:50:00,1.602
2023-10-03,01:00:00,1.601
2023-10-03,01:10:00,1.6
2023-10-03,01:20:00,1.599
2023-10-03,01:30:00,1.599
2023-10-03,01:40:00,1.598
2023-10-03,01:50:00,1.597
2023-10-03,02:00:00,1.595
2023-10-03,02:10:00,1.593
2023-10-03,02:20:00,1.593
2023-10-03,02:30:00,1.588
2023-10-03,02:40:00,1.59
2023-10-03,02:50:00,1.587
2023-10-03,03:00:00,1.586
2023-10-03,03:10:00,1.584
2023-10-03,03:20:00,1.585
2023-10-03,03:30:00,1.583
2023-10-03,03:40:00,1.583
2023-10-03,03:50:00,1.581
2023-10-03,04:00:00,1.581
2023-10-03,04:10:00,1.579
2023-10-03,04:20:00,1.578
2023-10-03,04:30:00,1.578
2023-10-03,04:40:00,1.577
2023-10-03,04:50:00,1.574
2023-10-03,05:00:00,1.574
2023-10-03,05:10:00,1.572
2023-10-03,05:20:00,1.571
2023-10-03,05:30:00,1.57
2023-10-03,05:40:00,1.569
2023-10-03,05:50:00,1.569
2023-10-03,06:00:00,1.567
2023-10-03,06:10:00,1.566
2023-10-03,06:20:00,1.566
2023-10-03,06:30:00,1.564
2023-10-03,06:40:00,1.564
2023-10-03,06:50:00,1.563
2023-10-03,07:00:00,1.561
2023-10-03,07:10:00,1.56
2023-10-03,07:20:00,1.558
2023-10-03,07:30:00,1.557
2023-10-03,07:40:00,1.556
2023-10-03,07:50:00,1.556
2023-10-03,08:00:00,1.554
2023-10-03,08:10:00,1.551
2023-10-03,08:20:00,1.55
2023-10-03,08:30:00,1.547
2023-10-03,08:40:00,1.547
2023-10-03,08:50:00,1.547
2023-10-03,09:00:00,1.547
2023-10-03,09:10:00,1.545
2023-10-03,09:20:00,1.545
2023-10-03,09:30:00,1.549
2023-10-03,09:40:00,1.543
2023-10-03,09:50:00,1.522
2023-10-03,10:00:00,1.529
2023-10-03,10:10:00,1.52
2023-10-03,10:20:00,1.524
2023-10-03,10:30:00,1.522
2023-10-03,10:40:00,1.523
2023-10-03,10:50:00,1.52
2023-10-03,11:00:00,1.511
2023-10-03,11:10:00,1.52
2023-10-03,11:20:00,1.518
2023-10-03,11:30:00,1.518
2023-10-03,11:40:00,1.518
2023-10-03,11:50:00,1.517
2023-10-03,12:00:00,1.516
2023-10-03,12:10:00,1.516
2023-10-03,12:20:00,1.516
2023-10-03,12:30:00,1.513
2023-10-03,12:40:00,1.513
2023-10-03,12:50:00,1.515
2023-10-03,13:00:00,1.513
2023-10-03,13:10:00,1.511
2023-10-03,13:20:00,1.511
2023-10-03,13:30:00,1.51
2023-10-03,13:40:00,1.511
2023-10-03,13:50:00,1.51
2023-10-03,14:00:00,1.511
2023-10-03,14:10:00,1.511
2023-10-03,14:20:00,1.512
2023-10-03,14:30:00,1.511
2023-10-03,14:40:00,1.51
2023-10-03,14:50:00,1.512
2023-10-03,15:00:00,1.512
2023-10-03,15:10:00,1.511
2023-10-03,15:20:00,1.513
2023-10-03,15:30:00,1.513
2023-10-03,15:40:00,1.512
2023-10-03,15:50:00,1.512
2023-10-03,16:00:00,1.512
2023-10-03,16:10:00,1.511
2023-10-03,16:20:00,1.512
2023-10-03,16:30:00,1.511
2023-10-03,16:40:00,1.511
2023-10-03,16:50:00,1.51
2023-10-03,17:00:00,1.508
2023-10-03,17:10:00,1.505
2023-10-03,17:20:00,1.506
2023-10-03,17:30:00,1.491
2023-10-03,17:40:00,1.492
2023-10-03,17:50:00,1.501
2023-10-03,18:00:00,1.494
2023-10-03,18:10:00,1.498
2023-10-03,18:20:00,1.496
2023-10-03,18:30:00,1.503
2023-10-03,18:40:00,1.484
2023-10-03,18:50:00,1.504
2023-10-03,19:00:00,1.506
2023-10-03,19:10:00,1.501
2023-10-03,19:20:00,1.504
2023-10-03,19:30:00,1.501
2023-10-03,19:40:00,1.506
2023-10-03,19:50:00,1.512
2023-10-03,20:00:00,1.512
2023-10-03,20:10:00,1.517
2023-10-03,20:20:00,1.523
2023-10-03,20:30:00,1.529
2023-10-03,20:40:00,1.53
2023-10-03,20:50:00,1.532
2023-10-03,21:00:00,1.535
2023-10-03,21:10:00,1.536
2023-10-03,21:20:00,1.538
2023-10-03,21:30:00,1.532
2023-10-03,21:40:00,1.539
2023-10-03,21:50:00,1.54
2023-10-03,22:00:00,1.539
2023-10-03,22:10:00,1.539
2023-10-03,22:20:00,1.54
2023-10-03,22:30:00,1.543
2023-10-03,22:40:00,1.546
2023-10-03,22:50:00,1.547
2023-10-03,23:00:00,1.549
2023-10-03,23:10:00,1.549
2023-10-03,23:20:00,1.547
2023-10-03,23:30:00,1.549
2023-10-03,23:40:00,1.55
2023-10-03,23:50:00,1.552
2023-10-04,00:00:00,1.546
2023-10-04,00:10:00,1.551
2023-10-04,00:20:00,1.546
2023-10-04,00:30:00,1.549
2023-10-04,00:40:00,1.549
2023-10-04,00:50:00,1.556
2023-10-04,01:00:00,1.56
2023-10-04,01:10:00,1.556
2023-10-04,01:20:00,1.563
2023-10-04,01:30:00,1.56
2023-10-04,01:40:00,1.559
2023-10-04,01:50:00,1.565
2023-10-04,02:00:00,1.561
2023-10-04,02:10:00,1.563
2023-10-04,02:20:00,1.567
2023-10-04,02:30:00,1.567
2023-10-04,02:40:00,1.567
2023-10-04,02:50:00,1.569
2023-10-04,03:00:00,1.57
2023-10-04,03:10:00,1.569
2023-10-04,03:20:00,1.573
2023-10-04,03:30:00,1.572
2023-10-04,03:40:00,1.572
2023-10-04,03:50:00,1.567
2023-10-04,04:00:00,1.556
2023-10-04,04:10:00,1.559
2023-10-04,04:20:00,1.558
2023-10-04,04:30:00,1.553
2023-10-04,04:40:00,1.556
2023-10-04,04:50:00,1.559
2023-10-04,05:00:00,1.553
2023-10-04,05:10:00,1.553
2023-10-04,05:20:00,1.553
2023-10-04,05:30:00,1.552
2023-10-04,05:40:00,1.551
2023-10-04,05:50:00,1.55
2023-10-04,06:00:00,1.551
2023-10-04,06:10:00,1.549
2023-10-04,06:20:00,1.547
2023-10-04,06:30:00,1.547
2023-10-04,06:40:00,1.545
2023-10-04,06:50:00,1.545
2023-10-04,07:00:00,1.545
2023-10-04,07:10:00,1.546
2023-10-04,07:20:00,1.545
2023-10-04,07:30:00,1.542
2023-10-04,07:40:00,1.54
2023-10-04,07:50:00,1.542
2023-10-04,08:00:00,1.542
2023-10-04,08:10:00,1.539
2023-10-04,08:20:00,1.54
2023-10-04,08:30:00,1.539
2023-10-04,08:40:00,1.539
2023-10-04,08:50:00,1.539
2023-10-04,09:00:00,1.533
2023-10-04,09:10:00,1.538
2023-10-04,09:20:00,1.539
2023-10-04,09:30:00,1.538
2023-10-04,09:40:00,1.538
2023-10-04,09:50:00,1.537
2023-10-04,10:00:00,1.537
2023-10-04,10:10:00,1.537
2023-10-04,10:20:00,1.537
2023-10-04,10:30:00,1.536
2023-10-04,10:40:00,1.536
2023-10-04,10:50:00,1.535
2023-10-04,11:00:00,1.536
2023-10-04,11:10:00,1.536
2023-10-04,11:20:00,1.535
2023-10-04,11:30:00,1.535
2023-10-04,11:40:00,1.537
2023-10-04,11:50:00,1.536
2023-10-04,12:00:00,1.537
2023-10-04,12:10:00,1.537
2023-10-04,12:20:00,1.538
2023-10-04,12:30:00,1.539
2023-10-04,12:40:00,1.539
2023-10-04,12:50:00,1.54
2023-10-04,13:00:00,1.54
2023-10-04,13:10:00,1.542
2023-10-04,13:20:00,1.543
2023-10-04,13:30:00,1.543
2023-10-04,13:40:00,1.543
2023-10-04,13:50:00,1.543
2023-10-04,14:00:00,1.543
2023-10-04,14:10:00,1.544
2023-10-04,14:20:00,1.545
2023-10-04,14:30:00,1.545
2023-10-04,14:40:00,1.545
2023-10-04,14:50:00,1.547
2023-10-04,15:00:00,1.546
2023-10-04,15:10:00,1.547
2023-10-04,15:20:00,1.549
2023-10-04,15:30:00,1.55
2023-10-04,15:40:00,1.551
2023-10-04,15:50:00,1.552
2023-10-04,16:00:00,1.552
2023-10-04,16:10:00,1.553
2023-10-04,16:20:00,1.553
2023-10-04,16:30:00,1.554
2023-10-04,16:40:00,1.556
2023-10-04,16:50:00,1.556
2023-10-04,17:00:00,1.557
2023-10-04,17:10:00,1.557
2023-10-04,17:20:00,1.558
2023-10-04,17:30:00,1.559
2023-10-04,17:40:00,1.559
2023-10-04,17:50:00,1.56
2023-10-04,18:00:00,1.561
2023-10-04,18:10:00,1.563
2023-10-04,18:20:00,1.563
2023-10-04,18:30:00,1.561
2023-10-04,18:40:00,1.563
2023-10-04,18:50:00,1.558
2023-10-04,19:00:00,1.556
2023-10-04,19:10:00,1.559
2023-10-04,19:20:00,1.559
2023-10-04,19:30:00,1.566
2023-10-04,19:40:00,1.565
2023-10-04,19:50:00,1.56
2023-10-04,20:00:00,1.577
2023-10-04,20:10:00,1.58
2023-10-04,20:20:00,1.583
2023-10-04,20:30:00,1.587
2023-10-04,20:40:00,1.586
2023-10-04,20:50:00,1.587
2023-10-04,21:00:00,1.59
2023-10-04,21:10:00,1.587
2023-10-04,21:20:00,1.59
2023-10-04,21:30:00,1.59
2023-10-04,21:40:00,1.591
2023-10-04,21:50:00,1.591
2023-10-04,22:00:00,1.592
2023-10-04,22:10:00,1.592
2023-10-04,22:20:00,1.592
2023-10-04,22:30:00,1.592
2023-10-04,22:40:00,1.593
2023-10-04,22:50:00,1.593
2023-10-04,23:00:00,1.594
2023-10-04,23:10:00,1.595
2023-10-04,23:20:00,1.595
2023-10-04,23:30:00,1.594
2023-10-04,23:40:00,1.595
2023-10-04,23:50:00,1.594
2023-10-05,00:00:00,1.597
2023-10-05,00:10:00,1.595
2023-10-05,00:20:00,1.597
2023-10-05,00:30:00,1.597
2023-10-05,00:40:00,1.595
2023-10-05,00:50:00,1.599
2023-10-05,01:00:00,1.599
2023-10-05,01:10:00,1.599
2023-10-05,01:20:00,1.599
2023-10-05,01:30:00,1.601
2023-10-05,01:40:00,1.6
2023-10-05,01:50:00,1.601
2023-10-05,02:00:00,1.6
2023-10-05,02:10:00,1.6
2023-10-05,02:20:00,1.599
2023-10-05,02:30:00,1.59
2023-10-05,02:40:00,1.599
2023-10-05,02:50:00,1.6
2023-10-05,03:00:00,1.599
2023-10-05,03:10:00,1.597
2023-10-05,03:20:00,1.594
2023-10-05,03:30:00,1.593
2023-10-05,03:40:00,1.592
2023-10-05,03:50:00,1.59
2023-10-05,04:00:00,1.587
2023-10-05,04:10:00,1.583
2023-10-05,04:20:00,1.585
2023-10-05,04:30:00,1.583
2023-10-05,04:40:00,1.581
2023-10-05,04:50:00,1.579
2023-10-05,05:00:00,1.578
2023-10-05,05:10:00,1.577
2023-10-05,05:20:00,1.577
2023-10-05,05:30:00,1.577
2023-10-05,05:40:00,1.576
2023-10-05,05:50:00,1.576
2023-10-05,06:00:00,1.573
2023-10-05,06:10:00,1.572
2023-10-05,06:20:00,1.571
2023-10-05,06:30:00,1.57
2023-10-05,06:40:00,1.569
2023-10-05,06:50:00,1.569
2023-10-05,07:00:00,1.566
2023-10-05,07:10:00,1.566
2023-10-05,07:20:00,1.565
2023-10-05,07:30:00,1.563
2023-10-05,07:40:00,1.563
2023-10-05,07:50:00,1.561
2023-10-05,08:00:00,1.559
2023-10-05,08:10:00,1.559
2023-10-05,08:20:00,1.558
2023-10-05,08:30:00,1.557
2023-10-05,08:40:00,1.556
2023-10-05,08:50:00,1.556
2023-10-05,09:00:00,1.554
2023-10-05,09:10:00,1.553
2023-10-05,09:20:00,1.552
2023-10-05,09:30:00,1.552
2023-10-05,09:40:00,1.55
2023-10-05,09:50:00,1.55
2023-10-05,10:00:00,1.549
2023-10-05,10:10:00,1.551
2023-10-05,10:20:00,1.547
2023-10-05,10:30:00,1.549
2023-10-05,10:40:00,1.545
2023-10-05,10:50:00,1.544
2023-10-05,11:00:00,1.549
2023-10-05,11:10:00,1.544
2023-10-05,11:20:00,1.538
2023-10-05,11:30:00,1.536
2023-10-05,11:40:00,1.549
2023-10-05,11:50:00,1.549
2023-10-05,12:00:00,1.549
2023-10-05,12:10:00,1.549
2023-10-05,12:20:00,1.549
2023-10-05,12:30:00,1.547
2023-10-05,12:40:00,1.549
2023-10-05,12:50:00,1.55
2023-10-05,13:00:00,1.549
2023-10-05,13:10:00,1.55
2023-10-05,13:20:00,1.55
2023-10-05,13:30:00,1.551
2023-10-05,13:40:00,1.551
2023-10-05,13:50:00,1.55
2023-10-05,14:00:00,1.551
2023-10-05,14:10:00,1.563
2023-10-05,14:20:00,1.563
2023-10-05,14:30:00,1.571
2023-10-05,14:40:00,1.578
2023-10-05,14:50:00,1.579
2023-10-05,15:00:00,1.578
2023-10-05,15:10:00,1.577
2023-10-05,15:20:00,1.578
2023-10-05,15:30:00,1.579
2023-10-05,15:40:00,1.58
2023-10-05,15:50:00,1.581
2023-10-05,16:00:00,1.581
2023-10-05,16:10:00,1.581
2023-10-05,16:20:00,1.584
2023-10-05,16:30:00,1.585
2023-10-05,16:40:00,1.585
2023-10-05,16:50:00,1.586
2023-10-05,17:00:00,1.587
2023-10-05,17:10:00,1.588
2023-10-05,17:20:00,1.59
2023-10-05,17:30:00,1.591
2023-10-05,17:40:00,1.592
2023-10-05,17:50:00,1.593
2023-10-05,18:00:00,1.593
2023-10-05,18:10:00,1.597
2023-10-05,18:20:00,1.598
2023-10-05,18:30:00,1.599
2023-10-05,18:40:00,1.6
2023-10-05,18:50:00,1.6
2023-10-05,19:00:00,1.601
2023-10-05,19:10:00,1.601
2023-10-05,19:20:00,1.602
2023-10-05,19:30:00,1.604
2023-10-05,19:40:00,1.606
2023-10-05,19:50:00,1.605
2023-10-05,20:00:00,1.606
2023-10-05,20:10:00,1.606
2023-10-05,20:20:00,1.607
2023-10-05,20:30:00,1.608
2023-10-05,20:40:00,1.608
2023-10-05,20:50:00,1.608
2023-10-05,21:00:00,1.61
2023-10-05,21:10:00,1.61
2023-10-05,21:20:00,1.611
2023-10-05,21:30:00,1.611
2023-10-05,21:40:00,1.611
2023-10-05,21:50:00,1.612
2023-10-05,22:00:00,1.612
2023-10-05,22:10:00,1.612
2023-10-05,22:20:00,1.613
2023-10-05,22:30:00,1.613
2023-10-05,22:40:00,1.613
2023-10-05,22:50:00,1.615
2023-10-05,23:00:00,1.615
2023-10-05,23:10:00,1.617
2023-10-05,23:20:00,1.617
2023-10-05,23:30:00,1.617
2023-10-05,23:40:00,1.618
2023-10-05,23:50:00,1.618
2023-10-06,00:00:00,1.618
2023-10-06,00:10:00,1.619
2023-10-06,00:20:00,1.619
2023-10-06,00:30:00,1.62
2023-10-06,00:40:00,1.619
2023-10-06,00:50:00,1.62
2023-10-06,01:00:00,1.62
2023-10-06,01:10:00,1.621
2023-10-06,01:20:00,1.621
2023-10-06,01:30:00,1.621
2023-10-06,01:40:00,1.622
2023-10-06,01:50:00,1.622
2023-10-06,02:00:00,1.622
2023-10-06,02:10:00,1.626
2023-10-06,02:20:00,1.626
2023-10-06,02:30:00,1.626
2023-10-06,02:40:00,1.627
2023-10-06,02:50:00,1.627
2023-10-06,03:00:00,1.627
2023-10-06,03:10:00,1.626
2023-10-06,03:20:00,1.624
2023-10-06,03:30:00,1.621
2023-10-06,03:40:00,1.62
2023-10-06,03:50:00,1.619
2023-10-06,04:00:00,1.618
2023-10-06,04:10:00,1.617
2023-10-06,04:20:00,1.615
2023-10-06,04:30:00,1.614
2023-10-06,04:40:00,1.613
2023-10-06,04:50:00,1.612
2023-10-06,05:00:00,1.611
2023-10-06,05:10:00,1.611
2023-10-06,05:20:00,1.61
2023-10-06,05:30:00,1.61
2023-10-06,05:40:00,1.608
2023-10-06,05:50:00,1.607
2023-10-06,06:00:00,1.606
2023-10-06,06:10:00,1.605
2023-10-06,06:20:00,1.604
2023-10-06,06:30:00,1.602
2023-10-06,06:40:00,1.602
2023-10-06,06:50:00,1.602
2023-10-06,07:00:00,1.6
2023-10-06,07:10:00,1.601
2023-10-06,07:20:00,1.6
2023-10-06,07:30:00,1.598
2023-10-06,07:40:00,1.598
2023-10-06,07:50:00,1.595
2023-10-06,08:00:00,1.595
2023-10-06,08:10:00,1.597
2023-10-06,08:20:00,1.594
2023-10-06,08:30:00,1.593
2023-10-06,08:40:00,1.593
2023-10-06,08:50:00,1.592
2023-10-06,09:00:00,1.591
2023-10-06,09:10:00,1.59
2023-10-06,09:20:00,1.59
2023-10-06,09:30:00,1.588
2023-10-06,09:40:00,1.587
2023-10-06,09:50:00,1.586
2023-10-06,10:00:00,1.587
2023-10-06,10:10:00,1.586
2023-10-06,10:20:00,1.585
2023-10-06,10:30:00,1.585
2023-10-06,10:40:00,1.584
2023-10-06,10:50:00,1.584
2023-10-06,11:00:00,1.584
2023-10-06,11:10:00,1.583
2023-10-06,11:20:00,1.584
2023-10-06,11:30:00,1.576
2023-10-06,11:40:00,1.584
2023-10-06,11:50:00,1.58
2023-10-06,12:00:00,1.584
2023-10-06,12:10:00,1.584
2023-10-06,12:20:00,1.584
2023-10-06,12:30:00,1.584
2023-10-06,12:40:00,1.584
2023-10-06,12:50:00,1.584
2023-10-06,13:00:00,1.585
2023-10-06,13:10:00,1.585
2023-10-06,13:20:00,1.585
2023-10-06,13:30:00,1.585
2023-10-06,13:40:00,1.585
2023-10-06,13:50:00,1.585
2023-10-06,14:00:00,1.587
2023-10-06,14:10:00,1.587
2023-10-06,14:20:00,1.59
2023-10-06,14:30:00,1.588
2023-10-06,14:40:00,1.588
2023-10-06,14:50:00,1.59
2023-10-06,15:00:00,1.59
2023-10-06,15:10:00,1.591
2023-10-06,15:20:00,1.588
2023-10-06,15:30:00,1.583
2023-10-06,15:40:00,1.595
2023-10-06,15:50:00,1.594
2023-10-06,16:00:00,1.594
2023-10-06,16:10:00,1.595
2023-10-06,16:20:00,1.597
2023-10-06,16:30:00,1.598
2023-10-06,16:40:00,1.599
2023-10-06,16:50:00,1.599
2023-10-06,17:00:00,1.6
2023-10-06,17:10:00,1.6
2023-10-06,17:20:00,1.601
2023-10-06,17:30:00,1.601
2023-10-06,17:40:00,1.604
2023-10-06,17:50:00,1.602
2023-10-06,18:00:00,1.605
2023-10-06,18:10:00,1.605
2023-10-06,18:20:00,1.607
2023-10-06,18:30:00,1.608
2023-10-06,18:40:00,1.61
2023-10-06,18:50:00,1.608
2023-10-06,19:00:00,1.611
2023-10-06,19:10:00,1.611
2023-10-06,19:20:00,1.613
2023-10-06,19:30:00,1.612
2023-10-06,19:40:00,1.613
2023-10-06,19:50:00,1.618
2023-10-06,20:00:00,1.613
2023-10-06,20:10:00,1.614
2023-10-06,20:20:00,1.614
2023-10-06,20:30:00,1.615
2023-10-06,20:40:00,1.617
2023-10-06,20:50:00,1.618
2023-10-06,21:00:00,1.618
2023-10-06,21:10:00,1.618
2023-10-06,21:20:00,1.619
2023-10-06,21:30:00,1.619
2023-10-06,21:40:00,1.62
2023-10-06,21:50:00,1.621
2023-10-06,22:00:00,1.62
2023-10-06,22:10:00,1.621
2023-10-06,22:20:00,1.62
2023-10-06,22:30:00,1.622
2023-10-06,22:40:00,1.622
2023-10-06,22:50:00,1.624
2023-10-06,23:00:00,1.622
2023-10-06,23:10:00,1.624
2023-10-06,23:20:00,1.622
2023-10-06,23:30:00,1.624
2023-10-06,23:40:00,1.625
2023-10-06,23:50:00,1.625
2023-10-07,00:00:00,1.625
2023-10-07,00:10:00,1.625
2023-10-07,00:20:00,1.627
2023-10-07,00:30:00,1.628
2023-10-07,00:40:00,1.627
2023-10-07,00:50:00,1.628
2023-10-07,01:00:00,1.628
2023-10-07,01:10:00,1.629
2023-10-07,01:20:00,1.631
2023-10-07,01:30:00,1.629
2023-10-07,01:40:00,1.631
2023-10-07,01:50:00,1.631
2023-10-07,02:00:00,1.629
2023-10-07,02:10:00,1.629
2023-10-07,02:20:00,1.629
2023-10-07,02:30:00,1.631
2023-10-07,02:40:00,1.631
2023-10-07,02:50:00,1.629
2023-10-07,03:00:00,1.632
2023-10-07,03:10:00,1.632
2023-10-07,03:20:00,1.629
2023-10-07,03:30:00,1.627
2023-10-07,03:40:00,1.625
2023-10-07,03:50:00,1.622
2023-10-07,04:00:00,1.621
2023-10-07,04:10:00,1.62
2023-10-07,04:20:00,1.619
2023-10-07,04:30:00,1.619
2023-10-07,04:40:00,1.617
2023-10-07,04:50:00,1.615
2023-10-07,05:00:00,1.614
2023-10-07,05:10:00,1.614
2023-10-07,05:20:00,1.613
2023-10-07,05:30:00,1.611
2023-10-07,05:40:00,1.612
2023-10-07,05:50:00,1.611
2023-10-07,06:00:00,1.61
2023-10-07,06:10:00,1.608
2023-10-07,06:20:00,1.608
2023-10-07,06:30:00,1.606
2023-10-07,06:40:00,1.606
2023-10-07,06:50:00,1.605
2023-10-07,07:00:00,1.604
2023-10-07,07:10:00,1.601
2023-10-07,07:20:00,1.601
2023-10-07,07:30:00,1.599
2023-10-07,07:40:00,1.597
2023-10-07,07:50:00,1.595
2023-10-07,08:00:00,1.594
2023-10-07,08:10:00,1.592
2023-10-07,08:20:00,1.592
2023-10-07,08:30:00,1.59
2023-10-07,08:40:00,1.59
2023-10-07,08:50:00,1.587
2023-10-07,09:00:00,1.586
2023-10-07,09:10:00,1.585
2023-10-07,09:20:00,1.584
2023-10-07,09:30:00,1.583
2023-10-07,09:40:00,1.581
2023-10-07,09:50:00,1.581
2023-10-07,10:00:00,1.58
2023-10-07,10:10:00,1.578
2023-10-07,10:20:00,1.578